EHI
1 1 0 0 0 0 0 0 0 0 0 0 0 0 0 0 0 0 0 0 0 0 0 1 1 1 2 4 5 6 5 2 1 1 1 0 0 0 0 0 0 0 0 0 0 0 0 0 0
1 0 0 0 0 0 0 0 0 0 0 0 0 0 0 0 0 0 0 0 0 0 0 1 1 1 1 1 2 3 3 2 1 1 0 1 1 0 0 0 0 0 0 0 0 0 0 0 0
0 0 0 0 0 0 0 0 0 0 0 0 0 0 0 0 0 0 0 0 0 0 0 1 1 1 1 0 0 1 1 2 2 1 1 2 2 2 2 1 0 0 0 0 1 1 0 0 0
0 0 0 0 0 0 0 0 0 0 0 0 0 0 0 0 0 0 0 0 0 0 0 0 1 2 1 0 0 0 0 1 2 2 2 2 2 3 4 3 1 1 1 1 1 2 1 0 0
0 0 0 0 0 0 0 0 0 0 0 0 0 0 0 0 0 0 0 0 0 0 0 0 1 2 1 0 0 0 0 1 2 2 2 3 2 3 4 4 2 1 1 1 1 2 2 1 0
0 0 0 0 0 0 0 0 0 0 0 0 0 0 0 0 0 0 0 0 0 0 0 0 1 1 1 1 1 0 0 1 1 1 1 2 2 2 2 3 2 1 1 1 0 1 1 1 1
0 0 0 0 0 0 0 0 0 0 0 0 0 0 0 0 0 0 0 0 0 0 0 0 0 0 1 2 1 0 0 1 1 0 0 1 2 1 1 1 2 1 1 1 0 0 0 0 0
0 0 0 0 0 0 0 0 0 0 0 0 0 0 0 0 0 0 0 0 0 0 0 0 0 0 1 1 1 0 0 0 0 0 0 0 1 1 0 0 1 1 0 0 0 0 0 0 0
0 0 0 0 0 0 0 0 0 0 0 0 0 0 0 0 0 0 0 0 0 0 0 0 0 0 0 0 0 0 0 0 0 0 0 0 0 0 0 0 0 0 0 0 0 0 0 0 0
0 0 0 0 0 0 0 0 0 0 0 0 0 0 0 0 0 0 0 0 0 0 0 0 0 0 0 0 0 0 0 0 0 0 0 0 0 0 0 0 0 0 0 0 0 0 0 0 0
0 0 0 0 0 0 0 0 0 0 0 0 0 0 0 0 0 1 0 0 0 0 0 0 0 0 0 0 0 0 0 0 0 0 0 0 0 0 0 0 0 0 0 0 0 0 0 0 0
0 0 0 0 0 0 0 0 0 0 0 0 0 0 0 0 0 0 0 0 0 0 0 0 0 0 0 0 0 0 0 0 0 0 0 0 0 0 0 0 0 0 0 0 0 0 1 0 0
0 0 0 0 0 0 0 0 0 0 0 0 0 0 0 0 0 0 0 0 0 0 0 0 0 0 0 0 0 0 0 0 0 0 0 0 0 0 0 0 0 0 0 0 0 0 0 0 0
0 0 0 0 0 0 0 0 0 0 0 0 0 0 0 0 0 0 0 0 0 0 0 0 0 0 0 0 0 0 0 0 0 0 0 0 0 0 0 0 0 0 0 0 0 0 0 0 0
0 0 0 0 0 0 0 0 0 0 0 0 0 0 0 0 0 0 0 0 0 0 0 0 0 0 0 0 0 0 0 0 0 0 0 0 0 0 0 0 0 0 0 0 0 0 0 0 0
0 0 0 0 0 0 0 0 0 0 0 0 0 0 0 0 0 0 0 0 0 0 0 0 0 0 0 0 0 0 0 0 0 0 0 0 0 0 0 0 0 0 0 0 0 0 0 0 0
0 0 0 0 0 0 0 0 0 0 0 0 0 0 0 0 0 0 0 0 0 0 0 0 0 0 0 0 0 0 0 0 0 0 0 0 0 0 0 0 0 0 0 0 0 0 0 0 0
0 0 0 0 0 0 0 0 0 0 0 0 0 0 0 0 0 0 0 0 0 0 0 0 0 0 0 0 0 0 0 0 0 0 0 0 0 0 0 0 0 0 0 0 0 0 0 0 0
0 0 0 0 0 0 0 0 0 0 0 0 0 0 0 0 0 0 0 0 0 0 0 0 0 0 0 0 0 0 0 0 0 0 0 0 0 0 0 0 0 0 0 0 0 0 0 0 0
0 0 0 0 0 0 0 0 0 0 0 0 0 0 0 0 0 0 0 0 0 0 0 0 0 0 0 0 0 0 0 0 0 0 0 0 0 0 0 0 0 0 0 0 0 0 0 0 0
0 0 0 0 0 0 0 0 0 0 0 0 0 0 0 0 0 0 0 0 0 0 0 0 0 0 0 0 0 0 0 0 0 0 0 0 0 0 0 0 0 0 0 0 0 0 0 0 0
0 0 0 0 0 0 0 0 0 0 0 0 0 0 0 0 0 0 0 0 0 0 0 0 0 0 0 0 0 0 0 0 0 0 0 0 0 0 0 0 0 0 0 0 0 0 0 0 0
0 0 0 0 0 0 0 0 0 0 0 0 0 0 0 0 0 0 0 0 0 0 0 0 0 0 0 0 0 0 0 0 0 0 0 0 0 0 0 0 0 0 0 0 0 0 0 0 0
0 0 0 0 0 0 0 0 0 0 0 0 0 0 0 0 0 0 0 0 0 0 0 0 0 0 0 0 0 0 0 0 0 0 0 0 0 0 0 0 0 0 0 0 0 0 0 0 0
0 0 0 0 0 0 0 0 0 0 0 0 0 0 0 0 0 0 0 0 0 0 0 0 0 0 0 0 0 0 0 0 0 0 0 0 0 0 0 0 0 0 0 0 0 0 0 0 0
0 0 0 0 0 0 0 0 0 0 0 0 0 0 0 0 0 0 0 0 0 0 0 0 0 0 0 0 0 0 0 0 0 0 0 0 0 0 0 0 0 0 0 0 0 0 0 0 0
0 0 0 0 0 0 0 0 0 0 0 0 0 0 0 0 0 0 0 0 0 0 0 0 0 0 0 0 0 0 0 0 0 0 0 0 0 0 0 0 0 0 0 0 0 0 0 0 0
0 0 0 0 0 0 0 0 0 0 0 0 0 0 0 0 0 0 0 0 0 0 0 0 0 0 0 0 0 0 0 0 0 0 0 0 0 0 0 0 0 0 0 0 0 0 0 0 0
0 0 0 0 0 0 0 0 0 0 0 0 0 0 0 0 0 0 0 0 0 0 0 0 0 0 0 0 0 0 0 0 0 0 0 0 0 0 0 0 0 0 0 0 0 0 0 0 0
0 0 0 0 0 0 0 0 0 0 0 0 0 0 0 0 0 0 0 0 0 0 0 0 0 0 0 0 0 0 0 0 0 0 0 0 0 0 0 0 0 0 0 0 0 0 0 0 0
Wind_Speed
7 6 3 2 3 3 1 2 2 2 3 5 5 3 4 6 6 5 5 5 4 5 6 6 4 3 3 3 3 2 1 1 2 2 2 3 3 4 4 5 4 4 3 2 2 1 1 0 0
6 4 3 3 3 2 3 3 3 4 5 4 3 3 4 6 6 6 5 6 5 6 6 6 6 5 4 4 3 2 2 2 3 3 4 4 5 5 6 6 6 5 4 4 3 3 3 2 1
6 3 3 3 2 0 3 4 5 5 3 1 3 3 4 5 4 5 6 6 6 6 6 8 6 6 5 4 3 2 2 3 3 4 4 5 6 7 7 7 7 6 5 5 5 4 4 3 2
5 3 3 3 2 1 2 4 5 5 3 2 2 5 5 5 4 6 7 6 7 7 6 8 6 6 5 4 3 2 1 2 3 4 4 5 6 7 7 8 7 7 6 6 6 5 5 5 4
3 3 4 3 2 2 2 3 3 2 2 3 2 5 6 5 6 8 7 6 7 7 6 7 7 6 6 5 4 3 3 3 3 3 3 4 5 6 7 7 7 7 7 7 7 6 6 6 5
4 4 3 3 2 2 3 3 4 2 3 3 3 5 6 6 6 7 6 6 6 6 5 6 7 7 7 6 5 5 4 4 4 3 4 4 4 5 5 5 5 7 7 7 7 7 6 7 6
4 3 3 2 2 3 3 4 4 2 3 3 2 4 7 7 7 6 6 6 5 4 5 4 4 5 5 5 6 6 5 5 5 5 4 4 4 4 4 4 5 6 7 7 6 6 6 8 7
3 3 3 2 3 3 4 4 2 2 3 4 2 2 5 9 8 7 6 5 4 4 4 4 4 5 5 4 5 5 6 6 5 5 5 5 4 4 4 6 4 6 7 7 7 7 8 7 7
4 4 3 2 2 3 5 5 4 2 4 4 2 3 7 11 10 8 6 5 4 3 2 3 4 4 4 4 4 3 2 3 4 2 2 5 5 4 4 2 3 5 6 7 7 7 7 7 7
5 4 1 0 1 2 5 4 5 6 5 5 6 6 9 11 10 9 6 5 4 3 2 2 3 3 4 4 3 3 3 3 4 4 4 4 3 3 5 1 4 5 5 6 7 7 7 6 5
5 4 1 2 2 2 4 4 5 5 4 4 7 11 12 11 9 7 5 3 2 2 2 2 2 3 4 3 4 3 3 3 3 4 4 4 4 3 3 3 2 3 5 4 4 6 5 5 4
5 3 2 2 3 3 3 3 5 6 1 3 7 11 13 11 9 8 5 3 3 1 1 1 2 3 4 5 4 3 3 3 4 4 5 4 3 4 3 3 3 3 2 2 3 3 5 5 6
7 3 3 3 4 4 4 5 5 5 4 5 9 11 12 10 8 6 4 4 3 2 1 0 2 4 4 4 4 4 4 4 4 4 4 5 4 4 4 3 3 4 3 3 3 4 4 5 6
4 4 3 3 4 4 5 5 5 5 7 9 11 12 11 10 8 7 6 5 4 3 1 1 1 3 4 4 4 4 4 3 4 4 5 5 4 4 4 4 3 4 3 3 3 4 4 4 4
4 5 5 5 6 4 5 7 7 5 9 10 11 11 11 10 9 8 7 5 4 3 2 1 1 2 4 5 5 4 4 4 4 4 5 5 5 5 5 5 4 3 4 4 4 4 3 4 4
6 6 6 5 6 4 7 6 3 6 10 11 11 11 10 10 9 8 6 5 4 3 2 1 0 2 3 3 4 4 4 4 3 3 4 6 6 6 5 4 4 4 4 4 3 3 3 4 4
7 7 6 4 6 6 8 7 4 6 9 10 10 10 10 10 9 8 7 6 5 4 3 2 1 1 2 3 3 3 3 3 3 3 4 5 6 7 5 4 4 5 4 3 4 2 3 3 3
7 7 6 5 4 7 9 9 4 6 9 10 10 10 10 9 8 7 7 6 5 4 3 2 2 1 2 2 2 2 2 3 3 3 4 6 5 6 6 4 5 5 3 3 3 3 3 3 3
4 6 6 3 1 6 10 11 8 7 9 10 11 11 11 9 7 7 7 7 7 6 4 3 1 1 1 2 2 3 3 3 3 3 5 5 5 6 5 5 5 4 3 3 4 3 3 3 2
7 7 6 3 1 6 8 11 9 8 10 11 11 11 11 9 8 8 8 8 8 6 4 3 2 1 1 2 2 2 3 3 3 3 4 5 5 5 5 5 5 4 3 3 3 3 3 2 2
9 8 7 5 2 5 7 9 7 5 7 8 9 10 10 9 9 10 10 9 8 6 5 3 2 2 1 1 1 2 2 2 1 3 3 4 5 5 5 6 5 4 4 3 3 3 3 3 2
8 4 6 6 7 4 4 7 5 3 6 8 9 10 10 10 9 9 9 9 8 7 5 4 3 1 1 1 2 3 3 4 4 4 4 4 4 5 5 5 5 4 3 3 3 3 3 3 2
2 0 3 5 7 8 6 8 4 2 6 7 9 10 10 10 10 10 10 9 8 7 6 4 3 2 1 1 1 3 3 3 3 4 4 4 4 4 4 5 5 4 3 4 3 3 3 2 3
5 4 4 5 6 8 4 7 5 2 2 2 5 8 10 10 10 10 9 8 8 7 6 5 4 3 2 3 3 3 4 4 5 4 5 4 3 3 4 4 4 4 3 4 3 3 3 3 3
7 6 5 5 5 3 1 6 6 1 2 3 2 5 9 10 11 11 10 10 9 9 8 6 6 4 4 4 3 3 4 5 5 5 4 4 4 3 5 4 4 4 4 4 3 3 3 3 3
8 8 5 4 4 3 4 7 3 0 2 4 4 4 7 10 10 10 11 10 9 9 8 7 6 5 4 4 3 3 3 3 3 4 4 4 4 4 5 5 4 4 4 4 3 3 2 3 3
6 6 4 6 6 7 5 4 6 3 5 5 5 6 8 10 10 10 10 10 9 9 9 8 7 6 5 4 4 4 3 3 4 4 4 3 3 3 5 4 4 4 3 4 4 3 3 3 3
3 2 4 6 6 7 5 6 4 2 4 6 7 8 8 9 10 10 9 9 9 8 8 8 7 6 5 5 4 3 3 3 3 4 3 4 4 4 4 4 4 3 3 3 3 3 3 4 3
6 5 5 5 5 7 6 4 2 3 3 5 7 7 8 9 10 9 9 9 8 8 8 8 7 7 6 5 4 4 4 3 4 3 3 4 4 4 4 4 4 3 3 3 3 4 3 4 4
5 6 7 7 7 7 8 6 1 3 4 6 7 7 7 8 9 9 9 9 9 9 9 9 8 7 6 5 5 5 4 4 4 4 4 4 4 4 4 4 4 4 4 4 3 4 4 4 4
Wind_Direction
168 165 185 221 230 218 121 86 51 65 68 60 46 37 32 29 8 44 71 77 94 111 119 126 106 99 95 87 73 56 21 321 286 278 265 244 241 244 249 247 239 233 229 233 238 237 237 219 62
162 165 212 233 242 194 122 103 87 62 80 98 73 55 64 68 49 73 85 81 90 95 103 95 90 83 76 67 55 28 5 337 313 297 287 279 268 260 258 257 251 247 243 244 249 248 245 240 245
159 202 242 232 225 205 107 109 104 99 98 76 83 58 48 64 66 75 86 100 98 96 95 87 81 78 74 73 65 31 358 345 329 314 305 299 290 278 270 265 261 258 255 254 256 259 256 250 244
176 198 226 240 205 91 90 119 127 131 120 84 111 100 82 58 59 88 105 109 104 98 93 87 74 71 70 72 70 38 342 294 301 302 292 290 287 284 277 269 267 265 261 261 258 257 257 255 252
207 231 223 214 182 122 141 140 161 163 112 102 103 97 97 88 95 108 111 108 104 99 91 84 64 54 47 46 39 25 4 328 297 284 288 291 285 281 276 271 268 270 265 262 260 258 255 258 260
212 234 239 213 157 147 165 177 187 172 120 124 123 109 101 116 124 117 115 110 99 90 84 84 82 61 47 38 32 22 5 347 332 315 299 291 280 274 272 270 272 269 266 264 266 265 260 259 259
246 242 254 231 188 179 158 175 192 173 141 120 123 115 123 140 134 133 125 113 100 91 81 65 60 70 73 60 37 24 15 6 356 342 328 310 286 274 266 264 267 262 254 256 258 260 260 261 255
258 256 235 214 207 172 149 169 160 187 112 111 168 138 135 148 148 145 137 130 120 107 89 66 47 33 22 36 53 19 12 8 359 349 344 333 295 263 247 246 241 260 259 252 247 245 241 250 252
232 246 243 223 219 142 163 175 146 142 139 142 136 65 107 139 154 159 159 156 145 123 95 65 41 31 16 359 30 350 355 4 304 293 344 289 286 293 254 284 273 260 259 253 241 241 233 234 238
215 242 242 258 243 144 175 194 167 175 173 166 147 128 136 155 168 174 176 168 156 134 105 63 36 26 10 360 2 341 333 345 326 332 328 311 311 299 294 193 254 261 258 245 232 231 223 224 229
215 240 208 199 202 192 187 189 188 202 201 187 168 157 160 170 178 184 183 172 142 130 107 53 16 17 2 358 352 348 338 337 326 335 321 308 302 287 277 278 237 251 249 245 219 222 220 222 226
216 222 228 196 177 200 202 191 200 222 250 134 155 157 166 178 184 190 190 173 168 163 100 48 353 356 360 359 353 337 344 342 340 339 330 320 312 306 312 291 298 287 274 269 259 245 225 223 226
219 206 200 211 202 214 218 222 231 220 193 159 155 165 175 183 187 188 190 185 185 176 178 30 335 349 355 360 337 341 350 341 342 340 329 330 319 315 313 297 295 286 288 273 258 252 240 230 229
208 209 204 205 206 210 225 227 226 212 175 171 171 178 183 189 195 191 194 201 199 193 189 153 313 351 344 342 342 351 342 338 330 338 335 332 324 318 314 306 306 303 296 295 278 261 251 243 235
186 210 217 208 209 206 226 233 221 189 178 182 184 186 188 195 201 207 202 204 202 192 194 169 303 336 343 344 348 342 338 337 336 342 333 334 331 321 316 313 310 310 300 288 279 272 259 248 239
198 216 221 189 198 194 228 253 160 172 190 194 192 189 195 202 210 210 204 205 193 190 182 148 269 332 352 351 340 340 344 343 341 342 337 337 336 330 324 315 312 312 302 291 279 268 260 252 247
204 221 224 196 196 197 226 259 142 174 199 203 201 199 202 206 211 204 201 201 190 186 178 160 103 342 357 355 339 342 342 342 338 341 346 339 339 333 326 322 317 312 303 296 288 281 275 266 259
208 221 228 227 181 218 236 251 201 189 211 218 211 209 208 213 207 196 195 190 183 181 175 151 143 353 4 349 339 353 344 338 344 348 350 342 335 336 331 321 321 319 307 304 293 289 279 277 269
228 236 252 265 195 243 255 263 252 216 219 224 217 213 213 212 196 183 185 181 181 179 178 164 187 91 5 357 343 343 350 340 346 349 350 335 333 332 329 325 330 322 320 316 310 302 287 281 279
228 241 256 268 262 257 275 272 263 233 228 229 227 216 211 203 192 181 184 182 188 180 179 178 164 109 35 18 349 343 340 331 343 330 337 338 337 333 326 331 326 327 319 313 318 313 308 293 276
228 242 262 280 264 230 280 270 248 212 220 224 228 227 214 203 199 185 186 186 187 184 181 177 167 153 120 36 337 321 316 290 316 347 346 342 338 335 332 329 325 325 320 330 323 316 313 308 293
235 246 258 261 260 263 273 294 280 217 227 218 213 209 205 196 197 186 186 187 188 182 177 181 175 176 151 237 317 334 328 343 351 340 339 331 340 342 335 328 327 326 329 328 318 337 313 298 298
236 86 231 244 260 275 247 272 279 201 238 214 204 204 200 193 190 187 188 187 184 174 175 182 181 188 192 258 294 293 316 335 334 329 334 334 349 344 342 338 333 332 328 329 329 320 307 294 292
153 167 175 217 249 263 270 266 279 226 241 202 189 199 198 190 186 186 182 181 178 172 175 182 191 195 203 239 258 282 310 316 323 330 341 336 343 341 353 337 331 331 332 329 326 316 303 296 293
201 224 232 226 228 259 126 257 267 318 289 272 249 199 193 188 186 183 181 183 181 181 183 188 195 204 210 230 250 268 289 302 310 322 338 331 341 348 352 340 331 335 333 326 318 308 311 295 287
206 237 261 284 288 299 211 250 271 75 268 263 247 215 189 187 188 186 187 186 184 186 188 194 201 210 212 229 245 260 274 288 309 312 317 324 334 343 341 334 329 333 328 316 315 304 308 296 285
190 221 291 290 288 283 265 263 274 207 223 213 202 191 190 188 187 189 188 188 187 189 191 196 203 211 214 225 236 249 269 288 297 291 293 311 320 327 330 325 322 329 328 321 314 310 312 299 288
303 181 200 250 281 282 280 273 278 239 217 201 200 198 191 186 188 190 189 190 190 190 190 194 206 214 213 221 231 243 264 276 283 285 296 306 311 321 315 322 326 329 327 321 316 306 318 300 293
179 199 229 250 273 283 290 293 7 293 281 233 214 205 196 192 192 191 189 189 188 188 189 193 202 210 212 219 225 232 244 259 264 265 276 280 288 295 301 312 319 326 326 324 312 305 307 296 292
248 242 230 252 252 252 278 286 108 256 269 252 233 212 204 200 195 191 188 184 186 190 193 197 201 205 208 216 223 232 245 247 255 256 260 267 274 283 290 299 302 316 318 314 310 305 302 301 301